ECMWFNIL_sfc_gust_057.txt.gz
Wind_Gust
15 14 14 14 16 16 17 17 17 18 18 18 18 18 19 15 17 17 16 18 16 17 16 15 16 15 17 20 19 18 17 17 17 16 18 19 20 18 19 16 12 15
14 15 14 14 14 14 15 15 16 17 19 18 18 17 14 12 15 16 18 18 18 19 18 16 16 17 18 18 16 16 15 16 17 16 17 19 20 19 18 15 18 20
14 15 15 15 16 14 16 18 18 20 19 20 18 16 14 13 15 16 16 17 16 16 15 16 17 17 16 15 15 15 16 16 16 14 16 19 20 19 17 19 18 19
14 15 17 17 18 19 19 19 18 22 20 20 19 17 17 14 16 17 17 17 17 17 17 17 16 16 14 11 10 11 14 17 17 15 16 16 17 18 18 17 17 18
17 17 16 17 16 17 18 20 22 21 20 20 19 16 16 16 16 19 17 17 19 18 18 17 15 14 16 17 15 15 18 17 16 15 16 16 17 17 18 17 17 18
17 18 17 16 15 16 18 18 21 21 21 19 20 16 17 17 18 18 18 18 19 20 19 17 17 17 17 17 18 18 17 16 16 16 16 17 16 16 17 16 17 18
19 19 17 16 16 17 16 19 19 18 19 19 18 19 17 18 18 18 18 21 20 20 19 18 17 17 17 17 17 16 17 16 16 17 17 16 16 16 16 16 18 18
20 18 18 17 16 16 18 19 20 20 17 17 18 18 17 19 19 18 19 20 20 21 20 19 17 17 17 17 17 16 16 16 16 17 17 17 16 16 17 16 15 16
20 19 19 16 17 18 18 20 19 18 17 17 17 15 15 18 18 19 18 19 19 20 20 18 18 19 18 17 17 17 17 17 17 18 18 17 17 17 17 16 15 15
21 21 20 19 17 17 17 17 18 16 13 14 15 15 16 16 17 19 19 19 19 18 17 17 17 18 20 19 19 18 17 18 18 19 19 18 18 18 18 18 17 17
22 21 20 20 20 17 16 17 16 11 10 14 15 16 16 16 18 19 20 21 21 20 19 17 17 18 18 18 17 16 16 16 17 18 18 18 18 17 14 17 18 18
21 20 21 20 19 18 16 13 11 11 15 15 17 17 16 15 16 20 22 22 21 20 19 19 19 18 18 18 17 16 15 15 15 16 17 17 17 17 17 17 17 18
23 21 20 19 18 18 15 13 10 12 16 17 17 17 16 15 15 18 20 21 21 20 20 19 19 19 18 17 17 16 16 15 14 15 15 16 15 16 17 17 17 15
24 23 20 21 18 18 16 11 9 10 14 16 16 16 16 16 17 17 19 20 19 17 16 17 18 18 17 17 16 17 16 15 15 14 15 15 15 15 15 16 14 15
26 23 21 20 20 16 16 13 11 10 13 14 14 15 14 15 15 16 14 18 19 16 16 17 17 16 17 17 17 16 15 15 15 15 15 15 15 15 15 15 12 15
28 24 24 22 22 21 16 12 10 10 12 13 14 13 13 13 14 14 15 16 15 15 15 18 17 13 10 12 9 16 17 16 16 16 16 15 15 15 15 15 15 16
28 27 25 25 24 21 18 15 11 10 9 11 11 9 7 8 10 12 14 14 14 14 14 12 10 10 12 13 11 8 13 15 16 16 16 16 16 16 15 16 16 16
29 28 27 27 26 26 24 21 18 16 15 12 11 9 7 6 7 9 10 9 9 11 11 10 10 6 10 10 11 11 8 15 15 16 16 16 16 16 16 16 16 16
28 28 27 27 27 25 23 23 21 20 20 18 15 12 9 10 9 8 8 8 7 9 10 9 10 5 6 9 10 11 11 10 15 17 16 16 16 16 16 16 16 16
28 28 28 27 26 25 22 22 22 21 18 17 17 19 17 14 13 12 12 12 11 8 9 8 8 6 5 8 10 11 12 11 13 15 15 16 17 17 16 16 17 17
28 28 28 28 27 26 24 24 23 21 20 19 20 19 19 16 16 16 16 14 14 12 9 9 9 11 8 8 10 12 13 11 13 13 14 14 14 15 15 14 15 14
28 27 27 27 27 26 26 25 23 22 21 19 21 23 22 21 19 18 17 16 16 16 13 10 11 12 7 7 12 15 15 14 13 13 13 12 11 10 10 11 12 13
27 27 26 27 27 26 26 25 24 23 21 18 20 20 20 21 22 23 21 20 18 17 16 15 12 13 10 7 12 15 12 15 14 14 13 13 11 10 10 9 9 10
27 26 26 26 27 27 26 25 24 22 22 21 21 19 20 17 16 17 20 21 23 24 21 17 15 15 12 6 7 8 10 17 16 16 14 14 13 12 11 12 14 13
24 25 25 26 26 26 25 25 24 24 22 22 23 21 20 19 20 18 16 18 20 22 24 22 18 16 15 9 7 7 10 13 16 17 17 14 15 14 13 13 14 14
24 24 25 26 26 25 26 25 23 23 23 23 23 22 22 22 24 23 22 19 19 24 24 23 20 20 21 15 12 12 11 10 11 15 17 17 15 16 16 15 15 15

ECMWFNIL_sfc_gust_063.txt.gz
Wind_Gust
17 17 18 18 18 17 16 17 19 20 21 20 21 21 22 20 20 21 20 21 20 21 21 21 22 22 22 21 21 20 20 22 23 22 22 23 20 20 18 18 15 16
18 18 19 19 18 18 19 17 18 19 21 21 21 21 22 21 17 20 21 21 21 21 21 23 23 23 22 24 22 21 21 20 22 21 21 22 20 19 19 21 20 16
17 17 18 18 20 21 21 21 20 19 22 22 21 20 22 20 20 21 20 19 18 19 20 19 24 23 24 22 22 23 22 21 21 20 20 20 18 19 18 20 20 20
18 18 18 18 20 20 22 21 22 22 20 21 20 21 21 22 18 21 24 21 23 20 21 21 21 23 24 23 24 24 23 22 21 20 20 19 19 19 18 18 16 17
19 21 20 20 19 21 22 22 22 22 23 22 20 19 21 21 20 20 21 23 22 24 23 21 19 24 23 23 23 23 22 21 20 21 22 20 21 21 19 19 18 21
21 22 22 21 20 21 23 22 22 22 24 22 21 21 21 20 21 23 21 23 22 25 22 19 19 23 21 19 22 22 22 22 22 21 21 20 19 20 19 19 21 21
22 22 21 22 22 23 23 22 22 23 24 25 24 22 21 22 18 23 27 26 25 25 24 20 22 21 18 20 22 22 22 21 21 22 22 21 19 20 21 20 22 21
22 22 22 24 22 23 23 24 24 25 25 25 25 25 22 21 18 25 27 26 19 20 18 18 19 23 20 14 21 23 24 20 20 22 22 22 21 20 21 22 19 21
22 22 23 23 24 22 22 25 25 25 26 26 26 25 20 19 22 21 23 15 20 22 22 17 19 22 19 20 24 25 26 22 19 21 21 21 21 21 22 21 20 20
24 24 23 24 24 24 24 24 26 25 26 28 27 26 25 20 16 15 18 17 18 16 14 16 19 21 22 22 22 23 23 23 21 21 21 20 20 21 21 21 21 22
24 24 24 24 25 25 25 26 26 27 27 29 29 26 26 22 19 15 17 18 17 15 15 17 17 19 20 21 23 22 22 21 21 22 20 19 20 20 15 20 21 21
25 24 24 24 25 25 25 26 26 25 28 28 29 30 25 23 23 19 14 18 17 13 11 17 21 18 21 25 24 23 24 24 20 20 20 20 19 19 20 20 20 20
26 26 26 24 25 25 25 25 25 25 27 29 28 28 28 25 20 21 15 13 14 12 13 15 19 19 16 21 25 21 21 21 20 19 18 19 19 19 19 20 20 20
26 25 25 27 26 25 25 25 25 26 26 26 26 28 28 30 28 23 19 11 11 11 11 8 14 14 16 18 18 20 21 22 20 21 19 18 18 20 19 20 20 21
26 26 26 27 27 25 26 26 25 24 25 26 25 26 26 29 30 30 28 23 14 12 8 9 10 12 12 14 18 23 24 19 19 20 20 19 19 20 19 20 21 20
27 26 27 27 28 28 26 26 26 26 26 25 25 26 25 26 26 25 25 25 23 18 10 8 15 15 19 18 15 22 23 22 21 20 20 20 20 19 19 19 19 18
27 27 27 28 27 28 27 27 28 27 26 25 24 25 24 24 24 25 23 25 25 23 16 19 18 19 22 22 23 20 23 25 25 19 20 20 20 20 19 20 19 19
27 27 27 28 28 28 28 28 28 28 28 27 26 26 26 23 24 23 22 23 24 23 18 16 17 22 26 25 24 23 15 18 19 21 22 19 20 21 21 19 18 19
27 27 27 28 29 28 28 28 29 29 29 29 29 26 24 26 24 23 22 23 23 22 23 18 19 25 26 26 26 26 22 17 16 19 20 20 19 20 20 19 18 18
26 26 26 27 27 28 28 28 28 29 27 27 27 27 26 25 24 24 23 23 22 21 21 21 20 28 28 28 25 25 23 17 18 19 18 21 21 22 19 18 19 19
26 26 26 26 27 27 27 27 28 28 28 28 28 28 28 27 25 25 24 23 23 23 20 20 19 25 29 29 27 26 27 17 18 19 20 19 22 19 20 18 18 19
26 26 26 26 27 27 27 27 27 28 27 26 27 27 26 24 23 22 23 25 24 24 24 23 21 22 28 28 29 26 28 21 18 18 20 21 20 21 17 14 15 16
26 26 26 27 26 27 27 27 27 27 27 27 27 26 27 26 24 25 24 23 24 24 27 23 23 22 27 29 28 27 21 20 20 20 21 22 19 21 16 12 19 15
26 26 26 27 26 27 26 26 26 27 26 26 26 26 26 26 25 25 24 23 22 21 24 22 23 21 27 29 28 27 22 21 20 22 22 22 22 19 16 13 19 20
26 26 26 26 26 26 25 25 25 25 25 25 25 24 25 25 25 25 25 24 24 22 20 24 25 22 25 29 28 27 25 20 19 19 22 23 23 18 13 11 14 16
24 24 24 25 26 26 26 25 24 23 25 24 24 25 25 25 26 26 25 25 25 26 28 27 29 27 29 30 29 29 26 23 17 15 18 22 21 21 14 15 17 17

ECMWFNIL_sfc_gust_069.txt.gz
Wind_Gust
16 16 14 13 14 16 17 18 17 17 16 17 18 18 19 17 16 12 10 9 7 8 8 8 8 8 9 7 8 9 10 13 13 15 17 18 17 17 15 15 17 18
12 13 13 13 14 15 18 17 17 17 18 18 19 19 18 19 17 16 15 12 10 9 7 9 11 11 9 9 9 12 15 14 16 15 17 17 16 15 16 14 14 13
13 12 13 13 13 13 14 14 16 17 16 15 15 17 19 18 21 20 17 14 14 12 11 10 10 10 10 11 12 12 13 15 16 14 12 12 12 14 14 14 12 14
11 13 13 13 13 13 13 15 16 18 18 20 20 20 20 20 20 20 18 18 14 14 12 11 12 12 12 13 12 13 15 18 17 14 16 17 16 14 11 10 11 14
10 12 11 11 11 11 11 13 15 18 19 18 17 18 19 19 20 21 22 22 21 20 19 17 15 14 12 13 13 16 14 13 14 11 12 14 12 11 11 9 11 15
7 8 10 12 12 13 14 15 14 18 20 18 19 18 19 19 20 22 23 25 24 23 22 20 18 16 13 13 13 13 15 14 15 13 17 17 13 10 11 9 11 13
9 9 12 13 13 14 14 15 16 18 20 19 19 19 21 21 22 22 24 24 23 26 29 28 23 19 14 12 12 14 15 14 12 13 13 9 12 11 11 12 13 13
9 10 12 14 13 15 15 16 17 18 19 20 19 20 21 22 22 21 21 23 24 28 33 35 33 31 30 24 17 15 15 12 10 8 11 10 7 10 8 8 8 11
10 10 12 11 14 15 16 17 16 17 20 21 21 20 19 22 21 20 21 20 23 31 35 35 35 31 31 30 28 26 20 10 5 9 11 7 9 11 12 11 11 10
14 14 12 12 15 17 17 16 16 16 18 21 21 21 23 22 21 22 22 22 22 26 25 26 26 27 26 26 27 28 27 19 8 6 6 9 9 8 6 7 7 8
16 17 18 16 16 18 18 17 16 16 17 20 23 23 23 22 23 22 22 23 23 21 25 25 25 26 27 27 27 26 25 25 21 10 7 7 7 8 8 8 8 11
17 17 18 18 16 17 18 17 17 15 15 17 18 20 21 22 22 24 22 24 24 19 23 24 25 25 25 26 27 27 25 24 24 21 13 10 9 10 8 10 12 12
15 17 17 16 17 17 16 16 17 17 14 15 16 17 20 23 23 24 23 23 24 22 24 26 26 25 27 28 26 24 24 23 22 23 22 18 9 6 9 9 11 11
14 14 16 17 18 17 16 16 16 17 15 12 13 15 19 21 21 22 21 22 24 23 23 24 27 29 29 29 25 25 24 22 21 21 21 20 15 9 9 11 12 11
12 13 15 17 18 17 18 19 18 17 17 15 14 14 16 18 19 20 21 23 23 23 24 24 26 26 32 34 31 29 24 22 22 20 20 19 18 13 9 8 8 8
12 12 14 15 17 19 20 20 20 19 19 19 19 17 12 15 17 19 20 23 23 25 23 24 26 23 38 34 28 30 24 22 20 18 18 17 18 16 11 7 6 6
9 11 12 13 13 16 17 19 19 20 19 20 20 21 21 15 16 19 21 22 23 24 25 25 24 32 35 30 30 34 29 22 19 18 15 16 15 16 16 12 8 4
15 8 10 10 10 12 13 13 14 15 17 19 21 21 23 21 20 20 19 21 23 23 23 26 25 30 32 34 34 33 30 27 17 16 15 15 15 15 15 10 6 7
15 15 15 17 15 10 10 12 11 11 13 16 19 20 20 23 23 22 22 22 24 24 24 28 26 31 32 35 35 35 33 28 19 18 16 17 18 19 19 8 8 11
15 14 15 16 18 18 16 17 18 14 10 9 14 16 20 21 22 22 23 24 24 23 22 25 25 32 33 35 35 35 33 26 23 24 21 20 23 22 25 23 22 20
13 15 14 15 16 18 18 18 20 20 15 9 14 15 18 21 21 21 22 23 23 23 23 24 26 31 32 34 35 35 32 23 25 26 24 23 24 23 23 24 22 22
12 13 13 14 16 17 19 20 19 21 22 15 10 12 13 14 15 17 19 21 22 23 23 23 24 28 31 33 34 34 30 29 28 26 25 26 25 25 24 24 22 23
12 13 14 14 15 16 17 19 19 20 19 19 12 11 14 15 16 16 17 18 20 22 22 21 22 26 30 31 32 34 26 27 27 26 25 24 25 24 21 22 21 25
12 14 14 13 13 14 14 15 17 17 18 17 18 12 15 14 12 13 13 14 16 18 21 21 22 24 28 29 31 32 27 26 26 25 24 25 22 22 22 20 21 27
11 11 11 11 11 11 11 13 16 17 14 16 17 15 14 16 13 11 12 11 12 14 18 19 21 21 26 28 29 30 30 24 25 24 24 26 24 23 20 21 22 20
8 9 9 10 9 8 9 10 10 14 15 14 15 14 15 16 16 11 15 14 12 12 15 16 19 20 25 27 28 27 28 29 22 23 26 24 23 25 24 21 22 23

ECMWFNIL_sfc_gust_072.txt.gz
Wind_Gust
12 12 12 13 12 11 11 12 11 12 12 11 10 9 11 12 14 14 15 15 16 17 17 16 14 13 12 11 10 12 13 15 16 15 15 16 16 16 18 20 19 19
12 12 12 11 10 11 12 12 12 12 12 10 11 11 11 13 15 17 20 21 21 21 21 19 18 16 15 15 13 14 15 14 16 14 15 17 18 18 21 21 21 19
8 8 10 12 13 13 13 14 16 17 16 15 13 14 15 15 16 19 21 23 23 23 25 23 22 23 22 19 17 15 15 16 17 15 16 17 17 18 19 18 14 18
8 10 11 12 13 15 16 18 19 18 17 19 20 20 20 19 20 20 20 23 24 25 25 25 24 24 25 24 23 19 15 16 17 17 17 16 15 16 18 16 15 16
8 11 11 12 14 15 16 18 19 19 18 17 17 19 21 20 19 18 18 21 26 22 21 19 21 24 25 25 24 22 22 19 16 15 15 15 15 15 16 17 18 17
9 10 11 13 14 15 17 17 17 18 19 19 19 18 16 16 17 17 17 20 21 21 21 19 21 21 21 21 23 24 24 24 24 21 16 16 15 14 14 14 14 16
11 11 13 14 14 14 14 15 15 17 17 16 16 20 18 19 20 20 19 17 20 21 20 20 20 22 21 21 19 20 24 24 25 25 22 15 14 15 13 14 15 14
11 10 12 13 13 12 12 13 15 16 16 17 18 19 19 19 20 17 19 15 18 22 21 21 21 21 22 21 22 23 23 21 24 26 25 22 13 13 9 10 10 12
14 12 11 12 12 11 11 10 13 14 15 17 18 18 18 19 18 19 20 17 17 22 22 22 23 22 22 22 22 22 23 23 21 24 25 24 21 15 13 10 10 11
14 13 12 12 13 13 13 10 9 12 13 15 15 17 20 20 19 18 19 20 17 22 24 23 24 25 24 23 22 22 23 23 23 22 22 23 22 21 15 12 11 13
13 12 12 13 13 13 13 12 10 8 10 12 15 17 17 19 21 19 20 21 22 21 24 25 24 25 26 25 23 22 22 22 22 22 21 21 22 22 19 13 11 13
12 11 13 14 14 13 14 14 14 12 9 8 12 15 16 17 18 20 22 21 20 21 22 25 23 23 23 24 25 25 23 22 21 21 21 20 20 20 20 17 13 12
12 12 12 12 13 13 12 14 15 15 15 11 9 12 16 17 18 19 20 19 20 22 24 27 24 23 23 24 26 26 24 23 22 21 21 20 19 19 20 20 14 12
9 8 8 10 10 11 12 13 14 16 15 15 11 11 15 16 17 18 17 19 21 22 23 24 24 24 27 29 26 27 25 22 20 20 20 19 18 17 19 18 16 13
8 8 8 8 8 8 9 11 13 14 16 15 15 14 14 15 16 17 18 19 20 23 23 22 22 24 27 31 30 29 24 23 22 20 21 19 18 18 19 19 15 14
11 9 9 9 11 11 9 9 9 11 14 16 16 16 15 16 16 17 17 18 19 21 19 19 22 22 33 33 28 30 26 24 25 23 21 18 19 22 25 27 26 23
13 13 13 14 12 13 11 9 9 9 12 13 14 15 15 15 16 18 17 16 17 17 19 20 21 28 32 28 30 34 28 23 22 21 22 25 24 24 24 26 27 27
12 13 15 15 14 14 14 12 8 8 12 13 14 14 15 12 14 16 16 16 17 16 17 20 20 26 27 29 30 31 29 25 21 22 23 25 24 25 23 22 24 25
11 14 15 15 15 14 14 14 12 9 10 13 15 12 10 13 12 14 15 15 17 17 18 20 19 25 26 29 29 29 29 24 22 22 22 24 24 23 23 24 21 22
10 11 13 13 13 14 14 15 15 13 8 7 9 9 10 11 11 12 13 14 16 15 15 17 20 24 26 28 29 29 27 23 21 21 23 22 23 23 22 22 21 19
10 9 10 10 10 12 13 14 15 14 12 10 10 11 10 11 12 12 13 13 13 14 14 16 20 25 26 28 28 29 26 19 21 22 23 22 22 20 22 22 21 22
8 8 8 7 9 10 13 14 14 13 14 11 12 13 11 8 9 11 13 13 12 14 14 16 17 21 26 27 28 28 24 21 22 22 23 24 23 22 22 21 20 22
8 8 8 8 8 10 12 12 12 14 13 11 13 13 14 13 12 14 12 13 14 15 16 16 16 20 24 27 27 29 21 20 21 21 24 24 23 21 21 21 21 24
7 8 8 7 7 10 10 9 10 9 12 12 13 14 15 13 10 14 15 15 15 16 19 17 16 19 23 25 26 27 23 21 20 21 20 20 19 20 20 19 21 29
7 7 8 7 8 8 8 8 9 9 7 8 11 10 11 8 9 12 15 15 16 15 17 18 16 16 21 25 26 25 28 20 21 21 22 21 21 21 18 19 21 20
6 8 7 9 8 7 9 9 7 7 10 9 9 10 10 10 8 9 14 15 15 16 17 16 17 17 20 25 24 24 25 25 18 22 26 25 21 22 23 20 20 21

ECMWFNIL_sfc_gust_075.txt.gz
Wind_Gust
12 12 12 13 13 13 13 13 12 12 11 11 13 14 14 14 15 14 16 16 15 15 15 15 16 17 20 19 19 20 17 16 15 15 16 17 17 16 18 17 17 19
11 11 12 11 12 12 12 11 12 11 11 11 12 12 13 13 11 13 17 16 15 14 14 13 14 16 16 17 18 18 18 18 19 18 17 17 18 18 19 21 22 22
12 12 13 13 12 10 11 12 11 11 11 12 10 10 11 11 12 13 17 17 15 15 15 15 15 16 16 16 17 16 18 20 20 20 20 20 18 17 18 18 18 19
13 13 12 12 12 12 12 14 14 12 11 13 13 14 14 13 13 14 16 18 17 17 18 18 18 18 18 19 18 18 18 17 16 19 21 20 19 19 18 18 19 19
13 13 12 11 11 13 14 16 15 15 16 15 15 16 18 17 17 16 15 17 18 18 20 20 19 20 20 20 19 18 18 19 19 19 19 20 20 20 20 19 19 19
13 12 11 11 11 12 16 17 16 17 16 17 19 18 19 18 18 18 17 19 20 21 20 20 21 20 22 20 20 17 19 20 21 21 21 20 21 21 21 21 21 20
11 10 11 10 11 12 16 16 16 17 17 15 16 20 18 18 18 19 18 20 20 22 21 22 22 23 23 22 21 21 21 20 21 22 22 23 21 23 22 22 23 23
10 8 9 10 10 10 13 15 15 16 15 17 19 20 20 19 19 16 17 19 20 21 21 21 21 20 21 21 25 24 24 21 22 23 23 23 22 21 23 23 23 24
9 10 11 11 12 10 10 11 12 12 14 15 16 16 17 18 18 18 18 18 19 21 21 21 22 20 19 20 24 23 25 24 22 21 21 22 23 23 22 23 24 23
11 11 12 12 13 13 12 9 8 9 11 13 13 14 17 16 15 15 16 17 17 19 20 20 21 20 20 19 23 23 24 24 22 21 20 19 20 22 22 21 20 23
11 12 12 13 13 13 13 12 9 8 8 11 12 14 14 15 15 13 16 20 19 18 18 19 19 19 20 21 21 22 22 22 22 21 21 21 20 20 19 20 19 21
10 11 11 11 12 12 12 12 12 10 8 7 10 12 12 13 13 14 18 16 15 15 15 17 18 19 20 21 21 23 23 21 21 20 21 21 22 20 19 19 22 25
9 8 8 8 8 9 11 12 12 12 11 11 10 11 13 13 12 12 12 12 13 13 15 17 17 18 20 22 22 21 20 20 21 22 22 21 21 22 23 23 25 26
8 8 7 7 7 7 7 8 9 11 11 10 9 11 12 12 12 12 11 11 13 13 14 16 17 19 21 24 24 22 22 21 21 22 21 22 23 24 23 22 20 21
8 7 8 8 8 7 8 8 9 8 9 9 8 8 10 10 10 10 11 12 12 13 14 15 18 20 21 25 24 24 23 20 22 21 22 23 22 23 21 23 22 22
8 8 9 8 9 9 8 8 8 8 9 9 9 8 7 9 9 10 10 11 13 14 13 15 18 19 29 31 27 27 21 20 21 20 22 22 22 24 24 25 23 24
9 8 10 11 9 8 8 8 9 9 10 9 9 8 8 9 9 11 12 12 12 13 15 15 16 23 29 26 27 31 25 19 20 20 21 22 22 24 25 26 25 24
9 9 10 10 9 10 9 8 8 10 10 10 10 10 10 9 10 11 11 11 12 12 13 15 14 22 24 26 27 28 26 23 17 19 21 20 21 23 23 23 25 25
9 10 10 10 10 8 8 9 10 10 11 11 13 11 10 13 12 13 13 13 13 13 14 15 13 20 23 26 26 27 26 22 17 18 19 20 21 22 22 23 24 25
8 9 10 9 8 9 9 10 11 12 10 9 10 11 12 11 12 13 13 14 14 13 12 13 13 20 24 25 25 27 25 19 17 18 19 20 20 21 23 23 23 23
7 7 8 7 8 8 10 11 11 10 10 8 9 10 11 13 13 12 14 13 14 13 12 14 15 20 22 24 24 26 24 16 17 18 19 20 20 19 21 22 22 23
6 6 6 6 7 7 8 9 8 8 9 7 8 9 9 9 11 12 14 14 13 13 13 14 15 18 22 23 23 24 22 18 17 19 21 23 23 21 20 20 22 24
5 5 6 5 5 6 6 6 7 9 8 8 10 9 10 12 12 13 12 13 14 14 14 14 14 17 21 22 22 24 19 19 18 18 21 23 23 22 20 21 23 24
4 5 5 5 4 6 6 6 6 6 9 8 9 10 12 12 11 12 12 11 12 14 15 14 14 17 20 21 22 22 20 19 20 20 21 22 22 21 20 19 22 30
4 4 5 5 6 5 5 6 6 6 6 8 9 9 10 9 12 12 13 13 13 12 17 17 14 16 19 20 22 21 24 17 20 20 22 22 23 22 19 20 21 22
4 5 4 5 6 6 6 6 5 7 9 8 8 9 9 10 10 11 13 15 13 13 14 14 16 17 20 21 21 21 21 21 15 21 24 24 22 24 26 22 22 22